CAPE
0 0 0 0 0 0 0 0 1 1 0 0 14 406 1043 1084 358 277 276 127 1162 1449 1617 1246 1286 1574 1828 1802 1372 864 714 579 397 247 240 102 65 24 16 7 16 0 0 0
0 0 0 0 0 0 0 0 0 1 2 1 30 104 772 1073 596 152 80 0 108 1107 1669 1312 1454 1637 1776 1736 1161 727 618 574 395 314 214 195 87 21 34 12 3 10 23 0
0 0 0 0 0 0 16 29 31 29 67 38 55 81 140 154 166 73 44 1 72 900 1589 1379 1540 1799 2059 1657 1157 862 520 395 337 402 389 226 120 64 42 27 10 22 0 0
14 10 0 0 97 81 203 233 175 189 157 169 117 63 48 105 138 91 59 196 1213 1886 1671 1461 1809 1951 1714 1449 1315 1007 620 302 265 314 434 427 287 116 63 34 6 8 1 0
2 9 0 43 485 426 392 72 108 124 148 212 180 132 149 208 80 69 46 873 1523 1995 1736 1800 1673 1423 1272 1246 1248 1116 902 573 304 298 380 387 371 201 109 71 10 6 3 0
0 2 6 173 388 260 429 39 94 137 171 226 267 12 97 905 1367 278 22 737 1382 2020 1722 1611 1559 1500 1371 1265 1160 1028 821 549 300 336 412 342 127 44 23 20 2 0 0 0
0 0 0 51 158 190 57 0 51 120 140 297 302 343 791 1421 1658 1345 1009 842 1021 2042 2007 1843 1576 1373 1378 1279 1128 835 647 455 347 226 202 140 6 0 0 0 0 1 8 0
0 0 0 8 52 210 10 0 0 35 151 185 146 339 595 1282 1570 1475 1461 1482 1598 1506 1065 1018 970 1184 1233 1100 517 383 261 151 72 4 0 0 0 16 13 0 0 0 0 0
75 24 0 0 0 0 0 0 0 8 67 74 149 136 148 414 824 1054 943 796 661 192 919 812 728 939 945 495 278 75 19 10 2 0 0 2 35 67 54 0 0 0 0 1
0 0 0 0 0 0 0 0 0 0 0 0 0 6 65 86 373 827 761 499 62 123 240 496 615 590 489 370 254 148 104 51 46 36 15 0 0 0 10 43 53 18 10 1
0 0 0 0 0 0 0 0 0 0 0 0 0 0 0 0 168 605 791 695 137 5 12 30 86 370 334 290 321 247 97 50 8 0 0 0 0 0 0 0 0 0 4 11
0 0 0 0 0 0 0 0 0 0 0 0 0 0 0 0 12 225 607 247 211 267 288 238 146 30 25 60 50 7 0 0 0 0 0 0 0 0 0 0 0 0 0 0
0 0 0 0 0 0 0 0 0 0 0 1 0 0 2 197 184 250 201 16 50 117 12 0 0 0 0 0 0 0 0 0 0 0 0 0 0 0 0 0 0 0 0 0
0 0 0 0 0 0 0 0 0 0 2 1 3 0 2 2 1 5 1 37 10 8 1 0 32 10 1 1 0 0 0 0 0 0 0 0 0 0 0 0 0 0 0 0
0 0 0 0 0 0 0 0 0 0 0 0 5 0 1 0 6 0 14 10 27 40 46 64 69 19 8 18 0 0 0 0 0 0 0 0 0 0 0 0 0 0 0 0
0 0 0 0 0 0 0 2 2 2 11 1 1 2 10 14 4 0 0 0 1 4 0 0 0 0 0 1 1 0 0 7 0 0 0 0 0 0 0 0 0 0 0 0
0 0 0 0 1 0 0 0 0 10 9 0 1 0 0 0 0 0 0 0 0 0 0 0 0 0 0 0 0 0 0 0 0 0 2 31 16 7 0 0 0 0 0 0
28 61 91 76 39 13 16 2 0 0 0 0 0 0 0 0 0 0 0 0 0 0 0 0 0 0 0 0 0 0 0 0 0 0 0 0 0 0 8 4 8 1 0 0
65 130 78 18 0 25 21 6 2 1 0 0 0 0 0 0 0 0 0 0 0 0 0 0 0 0 0 0 0 0 0 0 0 0 0 0 0 0 5 20 10 3 0 0
37 30 48 54 60 31 25 14 7 1 0 0 0 0 0 0 0 0 0 0 0 0 0 0 0 0 0 0 0 0 0 0 0 0 0 0 0 15 20 4 1 0 0 0
28 16 48 74 63 15 4 0 0 0 0 0 0 0 0 0 0 0 0 0 0 1 1 1 0 0 1 1 0 0 0 0 0 0 0 0 0 0 0 0 0 0 0 0
1 11 12 26 6 0 0 0 0 0 0 0 0 0 0 0 0 1 1 0 1 0 1 0 0 0 0 0 0 0 0 2 2 2 0 0 0 0 0 0 0 0 0 1
0 0 2 5 1 0 0 0 0 0 0 0 0 0 0 0 1 2 0 1 0 0 0 0 0 0 0 0 1 0 0 0 0 0 0 0 0 0 0 0 1 0 0 0
0 0 0 0 0 0 0 0 0 0 0 0 0 0 0 0 0 0 0 0 0 0 0 0 0 0 0 0 0 0 0 0 0 0 0 0 0 0 0 0 0 0 0 0
0 0 2 1 1 0 0 0 0 0 0 0 0 0 0 0 0 0 0 0 0 0 0 0 0 0 0 0 0 0 0 0 0 0 0 0 0 0 0 0 0 0 0 0
0 0 0 0 0 0 0 0 0 0 0 0 0 0 0 0 0 0 0 0 0 0 0 0 0 0 0 0 0 0 0 0 0 0 0 0 0 0 0 0 0 0 0 0
0 0 0 0 1 0 0 0 0 0 0 0 0 0 0 0 0 0 0 0 0 0 0 0 0 0 0 0 0 0 0 0 0 0 0 0 0 0 0 0 0 0 0 0
CIN
0 0 0 0 0 0 0 0 -35 -81 0 0 -129 -115 -170 -337 -445 -476 -469 -551 -307 -231 -204 -230 -245 -188 -121 -82 -109 -140 -145 -136 -138 -136 -110 -118 -110 -146 -127 -125 -137 0 0 0
0 0 0 0 0 0 -3 0 -2 -70 -109 -205 -222 -327 -243 -209 -366 -458 -483 0 -514 -282 -208 -221 -206 -172 -127 -93 -136 -172 -162 -140 -158 -129 -88 -72 -86 -124 -122 -100 -111 -121 -136 0
0 0 0 0 0 0 -128 -175 -149 -84 -99 -206 -132 -195 -219 -269 -394 -367 -433 -154 -466 -303 -189 -230 -206 -160 -95 -127 -158 -166 -185 -189 -167 -126 -86 -94 -91 -84 -75 -73 -86 -93 -8 0
-97 -127 0 0 -249 -238 -121 -253 -328 -228 -264 -316 -334 -400 -475 -484 -388 -382 -435 -386 -246 -179 -220 -266 -203 -167 -194 -166 -145 -138 -174 -199 -186 -122 -76 -77 -100 -95 -83 -67 -60 -63 -50 0
-115 -121 0 -162 -177 -174 -157 -224 -540 -377 -398 -390 -357 -397 -247 -559 -684 -545 -471 -262 -197 -196 -219 -212 -219 -252 -229 -233 -197 -141 -141 -150 -146 -128 -103 -117 -98 -114 -105 -52 -29 -42 -22 0
0 -104 -83 -217 -266 -415 -329 -129 -539 -553 -484 -420 -346 -64 -240 -507 -446 -483 -568 -307 -192 -151 -168 -175 -201 -218 -235 -204 -174 -129 -139 -151 -172 -146 -124 -149 -232 -264 -242 -146 -1 -16 0 0
0 0 0 -361 -360 -395 -113 0 -553 -520 -513 -434 -289 -380 -428 -331 -302 -369 -402 -366 -278 -117 -99 -132 -187 -181 -132 -118 -124 -161 -193 -201 -195 -186 -178 -228 -245 0 0 0 0 -6 -29 0
0 0 0 -300 -287 -122 -131 0 0 -501 -445 -358 -373 -372 -342 -233 -201 -229 -237 -259 -212 -123 -161 -217 -215 -156 -106 -90 -213 -234 -305 -334 -332 -129 0 0 0 -185 -190 0 0 0 0 -1
-123 -133 0 -5 0 0 0 0 0 -542 -439 -419 -313 -278 -319 -320 -256 -251 -252 -240 -245 -86 -122 -146 -172 -213 -103 -158 -244 -325 -441 -453 -490 0 0 -118 -235 -131 -102 0 0 0 0 0
0 0 0 0 0 0 0 0 0 0 0 0 0 -342 -282 -255 -228 -185 -197 -262 -386 -67 -54 -115 -140 -140 -137 -159 -184 -227 -276 -324 -372 -313 -254 0 0 0 -188 -147 -98 -107 -121 -8
0 0 0 0 0 0 0 0 0 0 0 0 0 0 0 -14 -331 -204 -149 -170 -299 -147 -74 -67 -152 -73 -92 -113 -143 -142 -244 -357 -227 -30 0 0 0 0 0 0 0 0 -80 -66
0 0 0 0 0 0 0 0 0 0 0 0 0 0 0 0 -256 -290 -75 -179 -210 -179 -114 -74 -102 -64 -193 -224 -247 -121 0 0 0 0 0 0 0 0 0 0 0 0 0 0
0 0 0 0 0 0 0 0 0 0 0 0 0 0 -11 -202 -174 -108 -51 -94 -76 -90 -263 0 0 0 0 0 0 0 0 0 0 0 0 0 0 0 0 0 0 0 0 0
0 0 0 0 0 0 0 0 0 0 -1 -1 -1 0 0 -185 -3 -40 -2 -7 -41 -40 -13 -17 -73 -171 -60 -67 0 0 0 0 0 0 0 0 0 0 0 0 0 0 0 0
0 0 0 0 0 0 0 0 0 0 0 0 -4 0 0 0 -22 0 -9 -31 -52 -42 -43 -65 -124 -237 -105 -137 0 0 0 0 0 0 0 0 0 0 0 0 0 0 0 -14
0 0 0 0 0 0 0 -83 -109 -42 -78 -39 -5 -23 -28 -28 -29 0 0 -3 -56 -94 0 0 0 0 0 -39 -23 0 -5 -80 0 0 0 0 0 0 0 0 0 0 0 0
0 0 0 0 -4 0 -2 -9 0 -127 -95 0 -46 0 0 0 0 0 0 0 0 0 0 0 0 0 0 0 0 0 0 0 0 0 -8 -57 -54 -51 0 0 0 0 0 0
-81 -77 -87 -90 -85 -99 -95 -112 -31 0 0 0 0 0 0 0 0 0 0 0 0 0 0 0 0 0 0 0 0 0 0 0 0 0 0 0 0 0 -64 -54 -46 -16 0 0
-61 -49 -70 -44 0 -86 -92 -90 -42 -71 0 0 0 0 0 0 0 0 0 0 0 0 0 0 0 0 0 0 0 0 0 0 0 0 0 0 0 0 -67 -58 -54 -62 0 0
-67 -70 -62 -65 -77 -75 -80 -98 -112 -17 0 0 0 0 0 0 0 0 0 0 0 0 0 0 0 0 0 0 0 0 0 0 0 0 0 0 0 -64 -74 -97 -14 0 0 0
-75 -68 -51 -53 -64 -97 -105 0 0 0 0 0 0 0 0 0 0 0 0 0 0 0 0 0 0 0 0 0 0 0 0 0 0 0 0 0 0 0 -25 0 0 0 0 0
-48 -54 -59 -63 -67 0 0 0 0 0 0 0 0 0 0 0 0 0 0 0 -1 -2 0 0 0 0 0 0 0 0 0 0 0 0 0 0 0 0 0 0 0 0 0 0
0 0 -60 -69 -26 0 0 0 0 0 0 0 0 0 0 0 0 0 0 0 0 0 0 0 0 0 0 0 0 0 0 0 0 0 0 0 0 0 0 0 0 0 0 0
0 0 0 -4 0 0 0 0 0 0 0 0 0 0 0 0 0 0 0 0 0 0 0 0 0 0 0 0 0 0 0 0 0 0 0 0 0 0 0 0 0 0 0 0
0 0 -29 -21 -24 -20 0 0 0 0 0 0 0 0 0 0 0 0 0 0 0 0 0 0 0 0 0 0 0 0 0 0 0 0 0 0 0 0 0 0 0 0 0 0
0 0 0 0 -16 0 0 0 0 0 0 0 0 0 0 0 0 0 0 0 0 0 0 0 0 0 0 0 0 0 0 0 0 0 0 0 0 0 0 0 0 0 0 0
0 0 0 0 -28 0 -16 0 0 0 0 0 0 0 0 0 0 0 0 0 0 0 0 0 0 0 0 0 0 0 0 0 0 0 0 0 0 0 0 0 0 0 0 0
Wind_Speed
19 19 17 14 12 12 13 13 16 18 17 21 17 1 6 3 2 2 1 6 3 6 7 5 7 7 7 7 8 10 10 10 11 11 10 9 9 8 9 10 12 12 13 14
20 22 22 20 16 16 16 11 16 19 22 19 20 19 9 12 6 6 7 4 2 3 7 7 5 5 6 7 8 9 10 10 11 10 9 8 8 9 10 8 9 12 10 12
24 22 21 25 25 19 18 16 17 22 21 24 25 25 15 4 9 13 9 5 5 3 7 7 6 5 5 7 8 9 10 10 10 9 8 9 8 5 5 4 6 2 4 13
27 24 28 23 20 19 18 19 25 29 30 32 34 34 31 18 7 8 7 5 4 3 2 5 4 5 5 7 7 8 9 9 9 8 7 8 9 7 6 5 2 2 2 2
29 30 28 21 23 23 23 24 27 30 33 34 33 33 31 27 25 19 11 9 8 7 1 2 2 4 6 6 6 6 7 8 8 7 7 10 11 12 11 10 10 6 5 2
25 29 33 25 28 26 24 31 31 31 33 35 33 35 33 34 30 22 17 12 13 10 6 3 3 3 5 5 6 6 7 9 9 9 10 11 13 14 14 14 15 10 6 5
29 33 29 28 29 25 31 35 34 32 32 32 31 29 36 33 30 26 24 21 14 9 8 5 4 5 4 4 5 7 9 10 10 11 11 12 13 14 14 14 15 14 14 6
27 30 33 28 24 27 27 27 30 31 30 30 30 30 31 30 28 26 22 20 17 13 12 8 6 6 6 4 7 8 9 11 11 11 12 14 15 16 14 12 14 13 15 14
22 22 21 20 19 20 23 27 29 31 32 33 32 31 30 28 27 25 20 18 18 24 12 10 11 8 11 13 8 9 10 11 12 13 14 16 16 16 15 14 14 14 14 12
18 19 20 18 20 23 27 30 31 31 32 31 32 32 32 29 27 25 21 21 21 36 14 14 15 12 10 10 9 9 9 10 12 14 15 16 16 15 18 20 19 15 11 8
20 21 20 20 22 27 29 29 29 30 31 32 35 35 35 33 27 21 16 12 11 17 20 23 19 13 14 13 10 10 11 12 14 14 14 15 14 15 17 18 21 25 24 21
23 22 22 24 25 28 28 29 31 33 35 35 34 35 33 34 31 26 19 18 15 13 13 15 10 6 5 6 10 10 12 14 15 15 15 15 16 18 17 17 19 22 21 19
22 22 24 28 28 25 26 28 31 33 35 34 32 31 28 29 30 27 22 19 17 13 7 5 6 2 4 6 8 11 14 15 16 17 18 18 20 21 23 24 26 27 28 25
21 23 26 25 26 25 27 30 31 30 28 28 28 28 28 23 25 20 16 8 4 4 2 1 8 5 7 9 10 13 15 16 17 18 20 21 22 26 27 28 30 31 24 25
22 19 22 24 26 25 25 26 27 27 26 24 23 21 21 18 19 22 13 8 7 2 4 3 6 11 13 12 15 16 19 21 22 24 24 24 26 26 27 29 29 29 29 25
21 23 23 23 23 24 23 21 22 22 21 19 20 20 19 17 13 12 13 12 11 10 11 12 14 16 17 18 21 23 23 23 26 26 25 25 26 27 28 29 30 29 29 29
22 22 22 22 19 19 20 20 19 17 19 17 17 19 19 18 16 14 14 15 15 17 15 15 17 19 20 21 22 23 25 26 27 27 26 26 26 26 27 28 28 30 29 28
17 19 19 18 17 18 18 18 18 17 17 17 17 18 18 18 16 14 15 15 16 18 20 22 23 24 26 27 26 26 28 28 27 28 27 27 28 28 28 28 29 28 29 29
15 16 16 18 17 16 15 16 15 15 13 14 15 16 16 16 17 17 18 20 22 24 26 28 29 29 30 30 30 28 28 29 28 28 29 30 30 28 26 26 26 27 28 29
16 14 16 17 16 15 14 13 13 14 15 16 17 19 21 22 22 22 24 25 26 27 28 27 27 28 29 29 30 30 30 29 29 30 31 30 30 29 27 26 26 26 27 28
15 17 15 16 15 14 14 14 15 16 18 20 21 21 22 23 23 23 23 23 24 25 25 25 26 26 27 27 27 27 27 27 26 26 26 26 25 24 24 24 24 25 25 27
16 18 18 15 14 14 14 14 15 17 18 20 21 20 20 21 19 19 19 20 21 22 23 24 24 24 25 25 25 25 25 24 23 23 23 22 21 21 22 23 23 23 25 26
15 18 19 16 13 13 13 14 16 17 19 20 20 19 18 17 17 17 18 20 20 21 21 22 23 23 23 23 23 23 23 23 23 23 22 22 22 22 22 22 23 24 24 26
18 18 16 12 11 12 14 15 16 17 18 18 19 18 17 17 18 18 18 18 19 20 20 21 21 22 22 22 21 22 23 23 23 23 23 23 23 23 23 23 24 25 25 26
17 17 14 12 11 11 12 13 15 16 16 16 16 16 16 17 17 17 17 18 19 20 20 20 22 22 22 21 22 22 22 23 23 24 25 26 26 26 26 25 25 25 26 26
17 16 14 13 12 11 11 12 13 14 15 16 16 15 15 16 16 17 17 17 17 18 20 21 21 20 21 22 22 23 23 23 23 24 25 25 25 25 25 25 26 27 27 28
17 15 13 13 12 10 11 12 12 13 14 14 15 15 15 15 16 15 16 16 17 19 19 19 20 21 21 22 23 23 22 22 21 22 23 24 23 23 24 25 26 26 27 28
Wind_Direction
293 289 293 295 297 308 313 319 316 315 319 318 323 291 190 240 231 258 279 341 128 144 152 126 116 98 75 71 58 59 71 92 98 92 87 79 60 55 33 10 4 356 349 340
292 287 284 284 293 298 306 319 319 316 315 323 326 322 209 209 225 282 294 303 211 157 153 151 123 92 81 79 55 70 67 89 86 87 87 70 47 25 18 12 15 4 342 333
285 290 291 285 283 291 297 308 313 306 318 318 317 320 321 262 216 201 192 190 189 215 166 158 144 103 80 81 57 77 70 75 82 82 76 49 44 33 27 31 17 43 14 317
281 285 281 286 294 293 295 307 305 298 305 306 303 304 305 312 286 235 218 217 209 215 188 152 112 95 39 58 63 64 65 65 77 85 72 44 36 48 43 32 357 330 201 313
278 275 282 290 287 288 288 294 308 302 305 308 311 306 301 306 301 292 282 281 294 298 257 138 94 60 52 58 61 66 62 53 57 78 62 47 42 42 42 30 14 353 337 257
278 278 275 284 291 297 294 285 307 308 309 309 311 299 293 302 300 290 286 278 288 290 288 299 337 47 58 43 39 40 46 30 34 42 37 40 32 36 36 35 29 38 17 311
276 275 280 295 294 298 284 286 303 308 309 313 311 309 300 300 300 296 291 283 279 261 253 264 307 333 20 51 36 16 22 22 27 29 28 21 20 21 25 36 38 37 34 13
280 276 275 304 299 288 297 304 305 307 311 310 313 313 311 304 300 302 296 289 278 260 259 273 297 325 328 356 1 18 15 19 19 26 19 6 359 359 12 27 32 35 26 40
287 286 303 307 314 313 308 301 305 307 309 308 308 310 311 308 305 300 300 301 298 273 234 283 296 316 303 306 341 355 3 8 8 16 8 2 358 354 356 2 5 14 19 33
297 307 306 307 314 315 310 302 303 304 306 309 308 308 304 305 304 303 302 300 290 296 291 299 302 315 308 309 325 341 351 4 8 6 358 355 353 352 343 338 337 340 350 2
299 306 311 315 313 312 311 311 310 307 307 307 306 305 304 305 304 298 291 286 274 270 282 291 305 297 295 307 317 329 339 350 356 1 358 354 355 355 351 348 335 322 321 327
299 305 311 313 315 315 314 314 313 310 306 308 311 309 308 302 302 298 289 286 273 275 282 286 300 306 338 342 329 338 343 348 356 355 355 352 346 344 346 345 340 333 332 329
306 310 308 308 314 319 320 319 319 315 312 309 314 319 319 316 313 307 295 292 273 267 253 272 276 282 354 9 348 344 345 349 349 345 343 342 339 338 336 334 328 325 320 323
311 311 309 313 316 321 319 318 322 328 330 323 318 321 331 343 345 350 360 10 349 278 311 260 264 334 331 320 336 335 338 339 337 337 336 335 332 327 326 326 322 318 333 327
317 325 320 320 320 322 331 327 323 335 343 339 341 348 355 354 22 42 19 7 10 331 261 298 315 318 328 315 318 326 322 321 322 319 321 325 326 328 326 323 323 320 321 328
324 325 326 325 326 327 332 338 337 344 352 354 358 360 7 6 6 11 18 332 313 312 302 339 338 335 339 323 308 308 314 317 311 312 316 318 319 322 323 321 320 323 321 321
320 326 332 339 350 348 347 347 352 0 6 9 10 12 21 21 26 25 30 34 30 36 20 350 343 333 335 327 324 325 319 318 315 315 314 314 314 314 317 318 321 320 323 323
345 348 358 6 5 1 6 8 10 18 20 18 26 28 24 24 22 4 352 353 343 347 329 322 324 319 313 313 319 321 316 315 319 318 318 315 311 311 311 315 316 320 324 326
356 357 3 4 14 21 11 5 352 8 356 2 359 358 359 342 340 333 328 320 316 309 309 309 312 311 309 311 311 311 311 312 315 315 314 313 313 315 314 314 316 318 321 325
353 7 13 22 20 16 13 2 353 344 337 339 339 330 325 317 316 314 308 306 311 310 313 317 318 313 312 311 310 309 308 310 310 310 310 311 314 316 320 321 322 322 324 325
350 338 0 7 9 10 4 359 352 343 332 330 329 331 328 323 325 319 316 318 318 315 314 315 317 317 319 325 329 325 323 320 319 321 322 324 324 327 329 331 333 332 331 332
323 314 325 349 2 2 355 351 348 348 343 340 339 342 344 337 341 346 342 337 332 332 333 332 333 335 339 342 342 343 343 343 342 342 343 344 345 346 344 344 344 343 341 340
331 332 327 334 355 9 7 354 347 346 343 347 349 353 355 358 356 354 350 344 345 344 345 343 345 349 352 356 357 358 2 2 2 2 5 8 8 6 4 1 357 356 353 349
342 347 352 4 14 15 7 356 350 351 350 350 351 352 360 356 352 351 356 359 2 5 7 4 7 10 11 12 8 10 10 5 7 10 13 16 16 15 13 13 10 6 4 4
354 358 12 31 31 26 27 20 10 8 7 4 2 1 9 11 19 13 20 19 17 14 13 10 9 9 12 16 12 13 19 16 17 23 25 27 27 27 26 24 20 15 10 6
348 359 8 13 32 48 35 27 25 22 19 17 13 9 11 11 12 12 12 11 7 11 14 11 10 6 8 11 18 27 32 33 34 32 29 26 24 22 20 18 15 13 11 9
349 357 2 357 9 30 34 21 21 21 19 18 22 24 21 18 15 7 9 11 10 12 4 0 5 11 22 27 28 31 35 38 37 32 28 26 25 24 21 16 15 14 13 9